CW6888 Weather Reports


Display with metric or nautical units.
time (UTC)temp
F
wind
direction
speed
MPH
gust
MPH
rain 1hr
in
rain 24hr
in
rain mn
in
humidity
%
barometer
mb
20260502205819 55 5 4.0 13.0 0.00 0.02 0.01 52 1012.0
20260502204829 55 325 4.0 11.0 0.00 0.02 0.01 49 1011.9
20260502203824 55 5 6.0 17.0 0.00 0.02 0.01 50 1012.0
20260502202818 55 20 5.0 12.0 0.00 0.02 0.01 53 1012.1
20260502201850 55 40 6.0 12.0 0.00 0.02 0.01 51 1012.0
20260502200823 55 345 5.0 11.0 0.00 0.02 0.01 52 1012.1
20260502195900 55 36 7.0 13.0 0.00 0.02 0.01 52 1012.2
20260502194821 56 38 7.0 14.0 0.00 0.02 0.01 47 1012.3
20260502193832 56 53 6.0 14.0 0.00 0.02 0.01 49 1012.4
20260502192854 56 23 5.0 10.0 0.00 0.02 0.01 52 1012.6
20260502191816 55 360 6.0 13.0 0.00 0.02 0.01 49 1012.8
20260502190829 56 20 7.0 16.0 0.00 0.02 0.01 47 1012.9
20260502185814 56 42 3.0 7.0 0.00 0.02 0.01 48 1013.0
20260502184827 55 73 5.0 11.0 0.00 0.02 0.01 49 1013.2
20260502183821 55 360 6.0 11.0 0.00 0.02 0.01 51 1013.3
20260502181847 54 9 8.0 14.0 0.00 0.02 0.01 49 1013.6
20260502180818 56 62 6.0 12.0 0.00 0.02 0.01 50 1013.7
20260502163826 53 360 5.0 10.0 0.00 0.02 0.01 59 1014.1
20260502162822 53 42 6.0 15.0 0.00 0.02 0.01 56 1014.3
20260502161834 52 17 9.0 19.0 0.00 0.02 0.01 60 1014.3
20260502160818 51 41 5.0 13.0 0.00 0.02 0.01 60 1014.3
20260502151841 50 13 4.0 14.0 0.00 0.02 0.01 65 1014.6
20260502150852 49 38 4.0 8.0 0.00 0.02 0.01 68 1014.7
20260502122842 45 14 6.0 12.0 0.00 0.02 0.01 79 1014.4
20260502121813 45 18 7.0 15.0 0.00 0.02 0.01 80 1014.3
20260502120827 44 30 7.0 12.0 0.00 0.02 0.01 81 1014.3
20260502115829 44 54 8.0 14.0 0.00 0.02 0.01 82 1014.4
20260502114822 44 44 6.0 13.0 0.00 0.02 0.01 82 1014.4
20260502113816 44 5 7.0 14.0 0.00 0.02 0.01 82 1014.4
20260502112828 44 342 4.0 16.0 0.00 0.02 0.01 81 1014.3
20260502111820 44 35 6.0 12.0 0.00 0.02 0.01 81 1014.1
20260502110835 44 24 9.0 14.0 0.00 0.02 0.01 81 1013.9
20260502105821 45 9 7.0 12.0 0.00 0.02 0.01 80 1013.9
20260502104833 45 38 5.0 9.0 0.00 0.02 0.01 80 1013.9
20260502103816 45 32 5.0 9.0 0.00 0.02 0.01 79 1013.8
20260502102828 45 37 4.0 10.0 0.00 0.02 0.01 79 1013.5
20260502101818 45 26 4.0 10.0 0.00 0.02 0.01 79 1013.7
20260502100826 45 336 5.0 11.0 0.00 0.02 0.01 79 1013.6
20260502090826 46 53 3.0 10.0 0.00 0.02 0.01 77 1013.3
20260502070825 48 13 0.0 1.0 0.01 0.02 0.01 86 1012.6
20260502065826 49 13 0.0 3.0 0.01 0.02 0.01 85 1012.7
20260502064818 49 37 0.0 3.0 0.01 0.02 0.01 85 1012.7
20260502063830 49 23 1.0 5.0 0.01 0.02 0.01 84 1012.8
20260502062821 49 34 2.0 4.0 0.01 0.02 0.01 84 1012.9
20260502061834 50 61 2.0 5.0 0.00 0.01 0.00 83 1013.1
20260502060824 50 22 2.0 5.0 0.00 0.01 0.00 83 1013.1
20260502055829 50 24 0.0 2.0 0.00 0.01 0.00 83 1013.2
20260502054822 50 22 0.0 3.0 0.00 0.01 0.00 82 1013.3
20260502053834 50 12 1.0 3.0 0.00 0.01 0.00 83 1013.2
20260502052823 50 13 0.0 3.0 0.00 0.01 0.00 83 1013.3
20260502051834 50 26 1.0 4.0 0.00 0.01 0.00 82 1013.2
20260502050817 50 5 1.0 4.0 0.00 0.01 0.00 82 1013.3
20260502045824 50 5 2.0 5.0 0.00 0.01 0.00 82 1013.5
20260502044835 50 27 3.0 4.0 0.01 0.01 0.00 81 1013.5
20260502043826 50 63 3.0 5.0 0.01 0.01 0.00 82 1013.2
20260502042838 50 248 0.0 2.0 0.01 0.01 0.00 82 1013.2
20260502041821 51 168 0.0 0.0 0.01 0.01 0.00 81 1013.5
20260502040841 51 168 0.0 0.0 0.01 0.01 0.00 80 1013.3
20260502035815 52 168 0.0 0.0 0.01 0.01 0.01 78 1013.1
20260502034837 52 168 0.0 0.0 0.00 0.00 0.00 78 1013.0
20260502033820 52 169 0.0 0.0 0.00 0.00 0.00 77 1012.7
20260502032824 52 169 0.0 0.0 0.00 0.00 0.00 77 1012.6
20260502031816 52 169 0.0 0.0 0.00 0.00 0.00 78 1012.7
20260502030848 52 169 0.0 0.0 0.00 0.00 0.00 77 1012.7
20260502025815 52 169 0.0 0.0 0.00 0.00 0.00 76 1012.7
20260502024828 53 169 0.0 0.0 0.00 0.00 0.00 77 1012.7
20260502023842 53 169 0.0 0.0 0.00 0.00 0.00 75 1012.5
20260502022842 53 168 0.0 0.0 0.00 0.00 0.00 74 1012.4
20260502021826 54 169 0.0 0.0 0.00 0.00 0.00 72 1012.6
20260502020818 54 169 0.0 0.0 0.00 0.00 0.00 70 1012.6
20260502015825 54 169 0.0 0.0 0.00 0.00 0.00 70 1012.3
20260502014817 54 169 0.0 0.0 0.00 0.00 0.00 70 1012.3
20260502013829 54 169 0.0 0.0 0.00 0.00 0.00 68 1012.3
20260502012821 54 169 0.0 0.0 0.00 0.00 0.00 69 1012.1
20260502011815 55 169 0.0 0.0 0.00 0.00 0.00 68 1012.1
20260502010827 55 168 1.0 3.0 0.00 0.00 0.00 68 1012.1
20260502005831 55 167 3.0 5.0 0.00 0.00 0.00 68 1012.2
20260502004824 55 167 3.0 4.0 0.00 0.00 0.00 68 1011.9
20260502003836 55 165 3.0 5.0 0.00 0.00 0.00 68 1011.3
20260502002820 56 164 3.0 5.0 0.00 0.00 0.00 67 1011.5
20260502001833 56 164 4.0 5.0 0.00 0.00 0.00 66 1011.5
20260502000824 56 164 3.0 5.0 0.00 0.00 0.00 65 1011.3
20260501235854 56 164 2.0 3.0 0.00 0.00 0.00 64 1011.2
20260501234816 57 164 2.0 5.0 0.00 0.00 0.00 64 1011.2
20260501233829 57 163 3.0 5.0 0.00 0.00 0.00 63 1011.3
20260501232821 57 163 2.0 6.0 0.00 0.00 0.00 62 1011.4
20260501231814 57 174 3.0 4.0 0.00 0.00 0.00 61 1011.3
20260501230827 58 132 3.0 7.0 0.00 0.00 0.00 60 1011.3
20260501225829 58 160 5.0 7.0 0.00 0.00 0.00 60 1011.1
20260501224822 58 165 6.0 8.0 0.00 0.00 0.00 59 1011.0
20260501223814 59 181 5.0 6.0 0.00 0.00 0.00 58 1011.0
20260501222830 60 166 4.0 7.0 0.00 0.00 0.00 56 1011.1
20260501221815 61 183 3.0 7.0 0.00 0.00 0.00 55 1011.2
20260501220839 61 175 5.0 7.0 0.00 0.00 0.00 56 1011.2
20260501215815 61 197 5.0 8.0 0.00 0.00 0.00 55 1011.1
20260501214839 61 172 6.0 8.0 0.00 0.00 0.00 55 1011.1
20260501213854 61 182 5.0 6.0 0.00 0.00 0.00 54 1011.3
20260501212818 61 192 5.0 7.0 0.00 0.00 0.00 53 1011.3
20260501211859 62 165 5.0 7.0 0.00 0.00 0.00 53 1011.6
20260501210821 62 171 5.0 7.0 0.00 0.00 0.00 52 1011.4